timestamp,surface_pressure_avg,surface_temp_avg,battery_voltage,lat,long
2018-12-31 00:00:00+00:00,240.3465,1.97,12.97,47.84626,-54.09684
2018-12-31 00:10:00+00:00,237.9697,1.98,12.89,47.84626,-54.09684
2018-12-31 00:20:00+00:00,240.0698,1.99,12.97,47.84626,-54.09684
2018-12-31 00:30:00+00:00,239.7914,2.0,13.05,47.84626,-54.09684
2018-12-31 00:40:00+00:00,237.5397,1.9,13.05,47.84626,-54.09684
2018-12-31 00:50:00+00:00,233.1747,1.9,13.05,47.84626,-54.09684
2018-12-31 01:00:00+00:00,228.1414,2.1,12.97,47.84626,-54.09684
2018-12-31 01:10:00+00:00,226.0048,2.0,12.89,47.84626,-54.09684
2018-12-31 01:20:00+00:00,227.8831,2.05,12.97,47.84626,-54.09684
2018-12-31 01:30:00+00:00,229.6764,2.19,12.97,47.84626,-54.09684
2018-12-31 01:40:00+00:00,234.0831,2.2,13.05,47.84626,-54.09684
2018-12-31 01:50:00+00:00,241.6598,2.1,13.05,47.84626,-54.09684
2018-12-31 02:00:00+00:00,244.3448,1.99,12.97,47.84626,-54.09684
2018-12-31 02:10:00+00:00,245.2764,1.9,12.89,47.84626,-54.09684
2018-12-31 02:20:00+00:00,249.9864,1.92,12.97,47.84626,-54.09684
2018-12-31 02:30:00+00:00,252.8898,2.0,12.97,47.84626,-54.09684
2018-12-31 02:40:00+00:00,251.3031,2.0,12.97,47.84626,-54.09684
2018-12-31 02:50:00+00:00,253.4148,2.0,13.05,47.84626,-54.09684
2018-12-31 03:00:00+00:00,259.7531,2.11,12.97,47.84626,-54.09684
2018-12-31 03:10:00+00:00,263.8398,2.3,12.89,47.84626,-54.09684
2018-12-31 03:20:00+00:00,269.5447,2.2,12.97,47.84626,-54.09684
2018-12-31 03:30:00+00:00,276.248,2.0,12.97,47.84626,-54.09684
2018-12-31 03:40:00+00:00,281.3397,2.0,12.97,47.84626,-54.09684
2018-12-31 03:50:00+00:00,288.3414,2.14,12.97,47.84626,-54.09684
2018-12-31 04:00:00+00:00,295.8931,2.2,12.89,47.84626,-54.09684
2018-12-31 04:10:00+00:00,302.4747,2.07,12.89,47.84626,-54.09684
2018-12-31 04:20:00+00:00,309.7047,2.0,12.97,47.84626,-54.09684
2018-12-31 04:30:00+00:00,317.9229,2.0,12.97,47.84626,-54.09684
2018-12-31 04:40:00+00:00,321.8313,2.0,12.97,47.84626,-54.09684
2018-12-31 04:50:00+00:00,325.1346,2.0,12.97,47.84626,-54.09684
2018-12-31 05:00:00+00:00,327.4864,2.02,12.89,47.84626,-54.09684
2018-12-31 05:10:00+00:00,331.338,2.1,12.81,47.84626,-54.09684
2018-12-31 05:20:00+00:00,336.7247,2.0,12.97,47.84626,-54.09684
2018-12-31 05:30:00+00:00,339.3646,1.97,12.97,47.84626,-54.09684
2018-12-31 05:40:00+00:00,340.1379,1.9,12.97,47.84626,-54.09684
2018-12-31 05:50:00+00:00,345.7513,1.9,12.97,47.84626,-54.09684
2018-12-31 06:00:00+00:00,352.2379,1.91,12.89,47.84626,-54.09684
2018-12-31 06:10:00+00:00,351.783,1.9,12.81,47.84626,-54.09684
2018-12-31 06:20:00+00:00,351.7263,1.93,12.89,47.84626,-54.09684
2018-12-31 06:30:00+00:00,358.3246,2.04,12.97,47.84626,-54.09684
2018-12-31 06:40:00+00:00,362.6462,2.0,12.97,47.84626,-54.09684
2018-12-31 06:50:00+00:00,364.8879,1.9,12.97,47.84626,-54.09684
2018-12-31 07:00:00+00:00,364.6428,1.9,12.89,47.84626,-54.09684
2018-12-31 07:10:00+00:00,365.8864,1.99,12.81,47.84626,-54.09684
2018-12-31 07:20:00+00:00,363.223,1.9,12.89,47.84626,-54.09684
2018-12-31 07:30:00+00:00,359.5229,1.8,12.89,47.84626,-54.09684
2018-12-31 07:40:00+00:00,360.9131,1.87,12.97,47.84626,-54.09684
2018-12-31 07:50:00+00:00,360.6279,2.0,12.97,47.84626,-54.09684
2018-12-31 08:00:00+00:00,357.5646,2.0,12.89,47.84626,-54.09684
2018-12-31 08:10:00+00:00,355.7762,1.9,12.81,47.84626,-54.09684
2018-12-31 08:20:00+00:00,355.363,1.9,12.89,47.84626,-54.09684
2018-12-31 08:30:00+00:00,350.7279,1.85,12.89,47.84626,-54.09684
2018-12-31 08:40:00+00:00,345.0814,1.96,12.97,47.84626,-54.09684
2018-12-31 08:50:00+00:00,340.478,2.0,12.97,47.84626,-54.09684
2018-12-31 09:00:00+00:00,328.3846,2.0,12.89,47.84626,-54.09684
2018-12-31 09:10:00+00:00,318.1996,2.0,12.81,47.84626,-54.09684
2018-12-31 09:20:00+00:00,315.1964,2.12,12.89,47.84626,-54.09684
2018-12-31 09:30:00+00:00,309.3513,2.3,12.89,47.84626,-54.09684
2018-12-31 09:40:00+00:00,297.638,2.1,12.97,47.84626,-54.09684
2018-12-31 09:50:00+00:00,292.4797,2.09,12.97,47.84626,-54.09684
2018-12-31 10:00:00+00:00,288.7647,2.14,12.81,47.84626,-54.09684
2018-12-31 10:10:00+00:00,282.3431,2.0,12.81,47.84626,-54.09684
2018-12-31 10:20:00+00:00,276.5297,2.01,12.89,47.84626,-54.09684
2018-12-31 10:30:00+00:00,274.9697,2.02,12.89,47.84626,-54.09684
2018-12-31 10:40:00+00:00,269.6231,2.09,12.89,47.84626,-54.09684
2018-12-31 10:50:00+00:00,262.1231,2.0,12.97,47.84626,-54.09684
2018-12-31 11:00:00+00:00,257.2281,2.0,12.81,47.84626,-54.09684
2018-12-31 11:10:00+00:00,252.9714,2.09,12.81,47.84626,-54.09684
2018-12-31 11:20:00+00:00,249.1714,2.0,12.89,47.84626,-54.09684
2018-12-31 11:30:00+00:00,246.0148,1.99,12.89,47.84626,-54.09684
2018-12-31 11:40:00+00:00,244.9414,2.0,12.89,47.84626,-54.09684
2018-12-31 11:50:00+00:00,245.6097,2.08,12.97,47.84626,-54.09684
2018-12-31 12:00:00+00:00,247.4664,2.09,12.89,47.84626,-54.09684
2018-12-31 12:10:00+00:00,248.088,2.13,12.81,47.84626,-54.09684
2018-12-31 12:20:00+00:00,244.7614,2.2,12.97,47.84626,-54.09684
2018-12-31 12:30:00+00:00,240.2097,2.2,13.05,47.84626,-54.09684
2018-12-31 12:40:00+00:00,238.0948,2.2,13.21,47.84626,-54.09684
2018-12-31 12:50:00+00:00,239.1964,2.2,13.29,47.84626,-54.09684
2018-12-31 13:00:00+00:00,238.2731,2.2,13.37,47.84626,-54.09684
2018-12-31 13:10:00+00:00,235.0698,2.1,13.44,47.84626,-54.09684
2018-12-31 13:20:00+00:00,234.2115,2.0,13.6,47.84626,-54.09684
2018-12-31 13:30:00+00:00,237.4547,2.06,13.68,47.84626,-54.09684
2018-12-31 13:40:00+00:00,238.1548,2.05,13.76,47.84626,-54.09684
2018-12-31 13:50:00+00:00,237.6198,2.0,16.55,47.84626,-54.09684
2018-12-31 14:00:00+00:00,243.1381,2.0,14.48,47.84626,-54.09684
2018-12-31 14:10:00+00:00,251.2448,2.0,16.63,47.84626,-54.09684
2018-12-31 14:20:00+00:00,255.2481,2.0,17.27,47.84626,-54.09684
2018-12-31 14:30:00+00:00,257.5014,2.0,17.18,47.84626,-54.09684
2018-12-31 14:40:00+00:00,263.8931,2.0,17.11,47.84626,-54.09684
2018-12-31 14:50:00+00:00,268.5298,2.02,15.51,47.84626,-54.09684
2018-12-31 15:00:00+00:00,268.3397,2.08,15.51,47.84626,-54.09684
2018-12-31 15:10:00+00:00,265.8448,2.1,15.51,47.84626,-54.09684
2018-12-31 15:20:00+00:00,268.2114,2.1,15.51,47.84626,-54.09684
2018-12-31 15:30:00+00:00,271.8964,2.1,15.44,47.84626,-54.09684
2018-12-31 15:40:00+00:00,272.7448,2.1,15.35,47.84626,-54.09684
2018-12-31 15:50:00+00:00,272.2948,2.1,15.2,47.84626,-54.09684
2018-12-31 16:00:00+00:00,272.0281,2.1,15.04,47.84626,-54.09684
2018-12-31 16:10:00+00:00,272.6697,2.05,14.96,47.84626,-54.09684
2018-12-31 16:20:00+00:00,272.7081,2.14,14.96,47.84626,-54.09684
2018-12-31 16:30:00+00:00,275.3947,2.1,15.04,47.84626,-54.09684
2018-12-31 16:40:00+00:00,278.9164,2.06,15.11,47.84626,-54.09684
2018-12-31 16:50:00+00:00,284.9147,2.2,14.96,47.84626,-54.09684
2018-12-31 17:00:00+00:00,289.023,2.05,14.96,47.84626,-54.09684
2018-12-31 17:10:00+00:00,290.4631,2.1,14.88,47.84626,-54.09684
2018-12-31 17:20:00+00:00,292.4964,2.23,14.96,47.84626,-54.09684
2018-12-31 17:30:00+00:00,296.373,2.2,14.96,47.84626,-54.09684
2018-12-31 17:40:00+00:00,299.1713,2.1,14.88,47.84626,-54.09684
2018-12-31 17:50:00+00:00,303.518,2.1,14.88,47.84626,-54.09684
2018-12-31 18:00:00+00:00,311.4896,2.1,14.88,47.84626,-54.09684
2018-12-31 18:10:00+00:00,318.2263,2.1,14.8,47.84626,-54.09684
2018-12-31 18:20:00+00:00,322.1847,2.1,14.72,47.84626,-54.09684
2018-12-31 18:30:00+00:00,328.453,2.09,14.8,47.84626,-54.09684
2018-12-31 18:40:00+00:00,334.718,2.1,14.8,47.84626,-54.09684
2018-12-31 18:50:00+00:00,336.8246,2.04,14.8,47.84626,-54.09684
2018-12-31 19:00:00+00:00,341.9347,2.07,14.64,47.84626,-54.09684
2018-12-31 19:10:00+00:00,347.068,2.1,14.32,47.84626,-54.09684
2018-12-31 19:20:00+00:00,349.5545,2.15,14.24,47.84626,-54.09684
2018-12-31 19:30:00+00:00,347.1762,2.1,14.16,47.84626,-54.09684
2018-12-31 19:40:00+00:00,346.7245,2.1,14.08,47.84626,-54.09684
2018-12-31 19:50:00+00:00,347.973,2.09,14.0,47.84626,-54.09684
2018-12-31 20:00:00+00:00,350.1229,2.09,13.92,47.84626,-54.09684
2018-12-31 20:10:00+00:00,351.9579,2.1,13.68,47.84626,-54.09684
2018-12-31 20:20:00+00:00,352.0997,2.1,13.68,47.84626,-54.09684
2018-12-31 20:30:00+00:00,349.6329,2.05,13.68,47.84626,-54.09684
2018-12-31 20:40:00+00:00,345.693,2.0,13.6,47.84626,-54.09684
2018-12-31 20:50:00+00:00,342.3947,2.04,13.6,47.84626,-54.09684
2018-12-31 21:00:00+00:00,339.9696,2.1,13.44,47.84626,-54.09684
2018-12-31 21:10:00+00:00,335.2413,2.1,13.29,47.84626,-54.09684
2018-12-31 21:20:00+00:00,328.7063,2.1,13.29,47.84626,-54.09684
2018-12-31 21:30:00+00:00,324.198,2.16,13.29,47.84626,-54.09684
2018-12-31 21:40:00+00:00,321.2714,2.28,13.29,47.84626,-54.09684
2018-12-31 21:50:00+00:00,317.4714,2.38,13.21,47.84626,-54.09684
2018-12-31 22:00:00+00:00,310.9413,2.26,13.13,47.84626,-54.09684
2018-12-31 22:10:00+00:00,304.308,2.1,13.05,47.84626,-54.09684
2018-12-31 22:20:00+00:00,297.2263,2.0,13.05,47.84626,-54.09684
2018-12-31 22:30:00+00:00,288.2947,1.95,13.05,47.84626,-54.09684
2018-12-31 22:40:00+00:00,279.7064,1.9,13.05,47.84626,-54.09684
2018-12-31 22:50:00+00:00,275.438,1.9,13.05,47.84626,-54.09684
2018-12-31 23:00:00+00:00,269.113,1.97,12.97,47.84626,-54.09684
2018-12-31 23:10:00+00:00,263.2115,2.0,12.89,47.84626,-54.09684
2018-12-31 23:20:00+00:00,257.9814,2.17,12.97,47.84626,-54.09684
2018-12-31 23:30:00+00:00,254.5381,2.3,12.97,47.84626,-54.09684
2018-12-31 23:40:00+00:00,249.9464,2.5,13.05,47.84626,-54.09684
2018-12-31 23:50:00+00:00,243.7148,2.38,13.05,47.84626,-54.09684
